Regional Weather Roundup
Issued by NWS

Home | Current Version | Previous Version | Text Only | Print | Product List | Glossary Off
Versions: 1 2 3 4 5 6 7 8 9 10 11 12 13 14 15 16 17 18 19 20 21 22 23 24 25 26 27 28 29 30 31 32 33 34 35 36 37 38 39 40 41 42 43 44 45 46 47 48 49 50

000
ASUS43 KIND 190309
RWRIN

WEATHER ROUNDUP FOR INDIANA
NATIONAL WEATHER SERVICE INDIANAPOLIS IN
1100 PM EDT SAT APR 18 2015

NOTE: "FAIR" INDICATES FEW OR NO CLOUDS BELOW 12,000 FEET WITH NO
SIGNIFICANT WEATHER AND/OR OBSTRUCTIONS TO VISIBILITY.

* - STATION DOES NOT REPORT WEATHER SUCH AS PRECIPITATION OR FOG.

+ - STATION NOT QUALITY CONTROLLED BY THE NATIONAL WEATHER SERVICE.
    USE DATA WITH CAUTION...ESPECIALLY DEWPOINT AND RELATIVE
    HUMIDITY OBSERVATIONS.

INZ001>003-010>013-019-020-190400-
NORTHWEST INDIANA

CITY           SKY/WX    TMP DP  RH WIND       PRES   REMARKS
GARY /AIRPORT/ CLOUDY    45  36  70 NE10      30.03S
KNOX *+        CLOUDY    63  14  15 E16       30.01S
MICHIGAN CITY+ CLOUDY    45  34  65 CALM      30.03F
MONTICELLO +   MOCLDY    65  50  58 E12G17    29.98R
RENSSELAER +   MOCLDY    52  41  66 NE7       29.99R
VALPARAISO     CLOUDY    51  40  65 NE7       30.01F

$$

LMZ046-743>745-190400-
SOUTHERN LAKE MICHIGAN

STATION/POSITION TIME  TEMP WIND        PRES
                       AIR  DIR/SP/G
                 (UTC) (F)  (DEG/KT/KT) (MB)
BURNS HARBOR     0300   42  360/  2/  4 1017.6R
MICHIGAN CITY    0300   43   CALM  /  2   N/A
4NW MICH CITY    0300   42   CALM  /  2   N/A

$$

INZ004-005-014>016-021>024-190400-
NORTH CENTRAL INDIANA

CITY           SKY/WX    TMP DP  RH WIND       PRES   REMARKS
GOSHEN         CLOUDY    57  28  33 E13       30.05S
LOGANSPORT +   MOCLDY    61  43  51 E12       30.01S
PERU/GRISSOM   CLEAR     61  42  50 E15G23    30.00S
ROCHESTER +    CLOUDY    63  28  27 E17G26    30.04R
SOUTH BEND     MOCLDY    63  31  30 E15G24    30.06R
WARSAW +       CLOUDY    59  21  23 E15       30.04F

$$

INZ006>009-017-018-025>027-190400-
NORTHEAST INDIANA

CITY           SKY/WX    TMP DP  RH WIND       PRES   REMARKS
ANGOLA *+      CLEAR     55  19  24 E10       30.09S
AUBURN +       CLOUDY    55  21  26 E13G18    30.08S
FORT WAYNE     MOCLDY    56  30  37 E15       30.06S
HUNTINGTON +   MOCLDY    56  31  38 E10       30.04S

$$

INZ028-029-035-036-043>045-051>053-190400-
WEST CENTRAL INDIANA

CITY           SKY/WX    TMP DP  RH WIND       PRES   REMARKS
CRAWFORDSVL +  CLOUDY    61  43  52 E5        29.95F
GREENCASTLE +  CLOUDY    63  43  48 E6        29.94F
LAFAYETTE      CLOUDY    61  50  67 N6        29.95F
TERRE HAUTE    CLOUDY    61  50  67 E6        29.93F

$$

INZ030>032-037>040-046>048-054>057-064-065-190400-
CENTRAL INDIANA

CITY           SKY/WX    TMP DP  RH WIND       PRES   REMARKS
CP ATTERBURY + CLOUDY    63  46  55 E5        29.95F
FISHERS *+     CLOUDY    63  52  67 E3        29.96F
FRANKFORT +    MOCLDY    60  51  71 NE5       29.99S
GREENWOOD *+   CLOUDY    66  43  42 E6        29.96F
INDIANAPOLIS   CLOUDY    68  45  43 E9        29.94F
-EAGLE CREEK   MOCLDY    67  47  48 E3        29.95F
KOKOMO *+      MOCLDY    61  43  51 E16G23    30.00S
MARION +       MOCLDY    60  39  46 E13       30.01F
MT COMFORT *+  CLOUDY    63  41  45 E6        29.98S
SHELBYVILLE    CLOUDY    63  50  62 E8        29.96S
ZIONSVILLE +   MOCLDY    63  49  58 E5        29.98S

$$

INZ033-034-041-042-049-050-058-059-190400-
EAST CENTRAL INDIANA

CITY           SKY/WX    TMP DP  RH WIND       PRES   REMARKS
MUNCIE         CLOUDY    62  46  55 E15       30.01S

$$

INZ060-061-067>069-081>083-085>088-190400-
SOUTHWEST INDIANA

CITY           SKY/WX    TMP DP  RH WIND       PRES   REMARKS
EVANSVILLE     MOCLDY    68  52  56 NE3       29.90R
HUNTINGBURG *+ MOCLDY    70  45  40 E10       29.91S
WASHINGTON +   MOCLDY    64  47  55 E3        29.91S

$$

INZ062-063-066-070>080-084-089>092-190400-
SOUTH CENTRAL AND SOUTHEAST INDIANA

CITY           SKY/WX    TMP DP  RH WIND       PRES   REMARKS
BEDFORD +      CLOUDY    68  43  40 NE5       29.93F
BLOOMINGTON    CLOUDY    61  50  67 E3        29.93F
MADISON *+     CLOUDY    68  41  37 NE9       29.96F
NORTH VERNON + CLOUDY    64  48  55 NE3       29.95F

$$




USA.gov is the U.S. government's official web portal to all federal, state and local government web resources and services.